Theta_e
318 323 326 327 328 328 327 326 328 327 327 329 328 327 326 326 326 327 327 327 327 326 327 327 325 324 324 324 325 323 322 323 324 322 319 321 319 321 323 321 322 323 329 335 332 325 323 328 331 326 324 328 328 330 331 332 332 332 331 332 332 332 332 329 331 331 330 330 329 330 329 329 328 328 328 327 327 327 327 326 327 327 325 324 325 327 325 325 326 326 325 325 326 326 326 326 327
319 323 325 326 327 327 328 327 330 330 328 329 328 326 326 326 327 327 327 328 328 327 326 326 326 325 325 324 324 323 323 323 323 324 322 319 318 322 323 322 324 323 328 333 330 324 322 327 332 330 328 331 332 332 331 332 333 333 330 331 332 332 332 330 331 331 330 330 329 330 329 329 328 328 327 326 327 327 326 326 327 326 326 325 326 327 324 325 327 326 324 325 325 325 325 326 327
318 321 323 326 327 327 327 327 330 330 330 330 327 326 326 327 327 327 327 327 327 328 326 325 326 325 324 323 322 323 325 324 323 322 320 320 320 322 322 322 324 323 324 330 330 324 323 325 331 332 333 334 333 332 331 332 332 333 332 331 332 331 331 331 331 331 330 330 329 330 329 329 328 328 327 326 327 326 326 325 326 326 326 325 326 326 324 325 326 325 324 325 325 324 325 326 327
318 321 323 325 326 327 328 329 330 330 330 329 327 326 326 327 326 327 326 327 328 328 326 324 325 324 324 323 323 323 324 324 324 322 320 321 321 321 321 319 321 324 321 327 332 325 325 325 327 331 334 335 334 333 332 333 333 333 332 332 332 330 331 331 330 330 330 330 330 330 329 329 328 328 327 327 327 326 326 325 326 326 326 326 326 326 325 325 325 325 325 324 324 324 325 327 326
319 321 323 325 326 327 328 329 330 330 330 328 326 325 324 326 325 326 327 329 329 329 330 327 326 323 323 324 324 324 324 323 323 320 321 321 322 322 320 317 322 325 319 325 332 328 330 327 324 329 332 335 335 334 333 333 332 332 332 332 332 330 330 330 330 330 330 330 330 330 329 329 328 327 327 327 327 326 326 326 325 326 326 325 325 324 323 325 325 325 325 324 324 325 326 326 325
319 320 322 325 325 325 327 329 329 329 329 326 325 324 324 324 324 325 325 328 328 332 335 333 330 328 326 324 323 324 324 323 321 320 321 321 321 322 319 319 322 323 320 322 331 332 334 330 324 327 330 333 335 334 333 333 332 332 332 331 331 330 330 330 330 330 330 329 329 329 329 328 328 327 327 327 327 326 325 325 325 326 326 325 324 321 319 322 325 325 324 324 324 324 326 326 325
318 319 323 326 325 325 327 328 328 327 326 324 325 324 323 323 323 324 324 326 326 331 336 334 333 332 330 326 324 323 324 323 322 321 320 321 321 323 320 320 322 324 322 319 327 333 335 335 327 325 328 332 335 334 333 333 332 332 332 331 331 330 330 330 330 330 330 329 329 329 328 328 327 328 327 327 327 326 326 325 325 325 325 323 321 318 317 319 324 325 324 324 324 324 325 325 324
317 319 322 326 327 326 327 327 326 325 325 323 323 323 323 323 323 323 323 325 324 327 332 331 329 329 329 326 325 323 323 323 322 322 321 321 321 322 321 321 323 324 324 319 325 334 336 337 332 325 326 332 335 334 334 333 332 332 332 331 331 330 329 330 330 329 330 329 329 329 328 328 327 327 327 327 327 326 326 325 325 325 324 322 318 317 316 317 320 323 323 323 323 323 324 324 324
318 319 320 323 326 327 327 327 326 325 324 323 323 323 323 323 322 322 323 324 324 325 327 328 327 325 325 324 325 324 322 323 322 322 320 321 320 321 321 320 322 323 326 321 322 332 336 338 336 328 325 330 334 334 334 333 332 332 332 331 331 330 329 330 330 329 330 329 328 328 328 328 327 327 327 327 326 326 326 325 325 325 325 323 319 318 318 316 316 318 322 322 322 323 323 324 325
318 320 321 323 324 326 326 326 326 325 324 324 323 323 322 323 322 323 323 323 324 324 324 325 325 324 324 323 324 324 323 322 322 321 320 321 321 321 321 320 320 322 326 324 321 327 334 337 337 331 325 327 332 334 334 332 332 332 331 331 330 330 329 330 330 330 330 329 328 328 328 327 327 326 326 326 326 326 326 325 325 325 325 324 322 320 319 316 314 316 320 322 324 323 323 324 324
319 320 322 324 325 325 326 324 324 323 323 322 322 322 322 322 322 322 322 323 323 323 324 324 324 324 324 324 323 323 323 322 322 320 319 319 321 322 321 321 321 322 327 327 323 324 329 334 336 332 326 326 330 333 333 332 332 332 331 331 330 329 329 329 330 330 330 328 328 327 327 327 327 326 326 326 326 326 325 325 325 325 324 324 324 323 320 317 317 317 319 322 322 320 322 324 323
319 320 322 324 325 324 324 324 323 322 322 322 321 321 321 322 322 322 322 323 323 323 324 324 324 325 324 324 324 324 323 323 322 319 319 320 322 322 319 320 321 323 328 328 325 325 328 330 334 332 326 325 328 331 332 332 332 332 331 330 330 329 329 330 330 329 328 328 328 327 327 327 327 326 326 326 325 325 324 325 325 324 324 324 324 324 322 320 319 318 318 318 316 316 321 324 323
318 320 321 322 323 323 323 323 323 323 322 322 321 321 320 321 321 322 323 323 323 323 323 323 324 324 324 325 324 324 324 321 320 319 319 319 319 318 316 317 319 322 327 329 327 327 330 328 330 331 326 325 328 331 332 332 332 332 331 330 330 329 329 329 329 328 328 328 327 327 327 327 326 326 326 325 325 325 324 324 325 324 324 324 324 323 323 321 319 318 317 313 311 312 320 323 322
318 319 320 320 321 321 321 322 322 322 322 321 320 320 320 320 321 321 322 322 322 322 322 322 323 324 324 324 324 325 323 319 319 319 318 317 317 316 315 315 315 317 322 327 327 328 332 330 328 328 326 325 329 333 333 332 333 332 331 331 329 329 329 328 328 328 327 327 327 327 326 326 326 326 325 325 325 325 324 323 323 324 324 324 324 323 322 321 317 315 313 309 307 309 318 323 321
318 318 319 320 321 320 321 321 321 322 321 320 320 320 320 319 319 320 321 321 322 321 321 321 321 323 324 324 325 325 322 318 318 319 318 319 319 318 318 316 314 315 317 322 326 328 333 332 328 326 325 325 328 332 332 332 333 332 331 330 329 329 329 328 328 328 327 327 327 327 326 326 326 326 325 325 324 324 324 323 323 323 323 324 323 322 322 319 314 311 308 307 306 308 318 322 320
318 318 319 320 321 321 320 320 321 321 321 319 319 319 319 319 319 319 319 320 320 320 320 320 320 321 322 322 324 324 320 318 319 319 320 320 321 322 321 319 318 318 317 318 323 328 332 334 331 327 325 324 327 331 331 331 332 332 331 330 330 329 329 329 328 328 327 327 327 327 326 326 325 325 325 325 324 324 323 323 323 322 322 322 322 322 321 317 313 310 307 306 305 308 315 319 319
318 318 319 320 320 320 320 320 320 321 320 319 319 318 318 318 318 319 319 318 319 319 319 319 320 320 320 321 321 322 320 319 320 320 321 321 322 324 323 321 320 322 322 319 321 326 330 333 334 331 328 324 326 330 330 330 330 331 331 331 330 330 329 329 328 327 327 327 327 326 326 326 325 325 325 324 324 324 323 323 323 322 321 320 319 320 319 315 312 308 306 306 305 305 310 314 315
318 318 319 320 320 320 319 319 319 319 318 318 318 318 317 318 318 318 318 317 317 318 318 319 319 319 319 319 319 320 321 320 320 320 320 322 323 323 324 323 322 323 323 321 321 324 326 330 333 333 332 328 326 328 330 330 330 329 330 331 330 330 329 329 328 327 327 327 326 326 326 325 325 324 324 324 323 323 323 322 322 322 321 319 316 316 315 314 312 308 305 305 304 304 306 309 308
318 318 319 320 319 318 318 318 318 317 317 317 317 317 317 317 317 317 317 317 317 317 318 318 318 319 318 318 319 319 320 320 320 320 321 323 324 322 323 323 323 323 323 323 322 322 323 325 329 333 334 332 328 328 330 331 331 330 329 330 331 331 330 329 328 328 328 327 327 326 326 325 325 324 324 324 323 323 323 322 322 322 322 320 316 312 310 309 309 307 305 304 303 303 304 304 306
317 318 319 319 318 317 317 317 317 316 316 316 316 316 316 316 316 316 316 316 316 317 317 317 317 318 318 318 319 319 320 321 320 320 321 323 324 322 323 323 323 323 323 323 323 322 321 321 324 329 333 334 332 330 330 332 333 333 331 329 330 331 330 330 329 328 328 327 327 326 326 326 325 324 324 324 324 323 323 322 323 322 321 318 316 312 307 304 305 304 303 303 303 303 303 302 309
316 317 317 317 316 316 316 316 316 315 315 315 315 315 315 316 315 315 315 315 316 316 316 317 317 317 318 318 318 318 320 321 321 321 322 323 323 323 324 324 323 322 322 323 324 323 321 321 321 325 329 333 333 332 332 333 333 334 333 331 329 330 330 330 329 329 328 328 327 326 326 325 325 324 324 324 324 324 323 323 323 322 321 318 316 312 306 303 303 303 303 303 303 303 302 304 313
315 315 316 316 315 315 314 315 315 315 315 315 315 314 315 314 315 315 315 315 316 315 316 316 316 317 317 317 317 317 318 319 319 320 322 322 321 321 323 325 324 322 321 323 324 324 323 322 322 322 324 328 331 332 332 333 334 335 334 332 330 330 330 330 330 329 329 328 327 326 326 325 325 325 324 324 325 325 324 323 322 322 322 320 316 311 305 302 303 303 304 303 303 303 304 311 317
315 314 314 314 314 314 314 314 314 314 313 313 313 314 314 314 314 314 314 315 315 315 315 315 315 316 316 316 316 317 317 317 318 318 319 319 319 319 321 323 323 322 321 322 323 324 325 323 322 322 322 324 327 329 331 332 333 333 333 333 331 331 331 330 329 329 329 328 327 327 327 326 325 325 325 324 325 325 324 323 323 322 321 321 317 310 305 303 304 307 306 305 306 305 308 316 318
314 314 314 314 314 314 314 313 313 313 313 312 313 313 313 313 313 313 314 314 314 314 314 314 315 315 315 315 315 316 316 316 316 316 316 317 317 318 318 320 321 321 321 321 321 322 324 323 322 321 320 321 322 325 328 330 331 330 331 332 331 330 330 330 329 329 328 328 327 327 327 327 326 326 325 325 325 325 323 322 322 322 320 319 315 311 308 304 308 312 310 308 309 308 311 316 318
314 314 313 313 313 314 313 313 313 313 312 312 312 312 312 312 312 312 313 313 313 313 313 313 314 314 314 314 314 315 314 314 314 314 315 315 316 317 317 318 319 320 320 321 321 321 323 323 321 320 320 319 319 321 324 327 328 328 329 330 330 330 330 331 330 329 328 327 328 327 327 327 327 326 326 326 326 324 323 322 322 322 320 318 315 315 313 307 310 313 310 310 310 309 312 316 317
313 313 313 313 313 313 313 313 313 313 312 313 312 312 312 312 313 312 312 312 313 312 312 313 313 313 313 314 314 314 313 313 314 313 313 314 315 316 316 317 318 319 319 320 320 321 322 322 322 321 320 320 318 320 321 323 325 327 327 328 330 330 330 331 331 330 329 328 328 328 327 327 327 327 326 326 326 324 323 321 321 322 321 319 317 317 314 308 309 311 310 310 310 310 314 316 317
313 314 313 313 313 313 313 313 313 313 313 313 313 312 312 313 313 313 313 312 313 313 312 312 312 313 313 313 313 313 314 314 314 314 314 314 314 315 316 317 317 318 318 318 319 320 321 321 322 322 321 320 321 321 321 321 323 325 325 326 328 329 330 331 331 330 330 329 328 328 328 327 327 327 327 326 325 324 323 321 321 322 321 320 319 317 313 309 309 310 310 309 310 311 313 316 318
314 314 314 313 313 313 313 313 313 313 313 313 313 313 313 314 313 313 313 313 313 313 313 313 313 313 313 313 313 313 314 314 314 314 315 315 314 314 315 316 317 317 318 318 318 319 320 320 321 321 321 321 321 322 321 321 322 323 324 325 326 327 329 331 331 331 330 330 329 328 328 327 327 327 327 326 325 324 322 321 321 322 321 320 319 316 311 309 310 310 310 309 310 312 314 317 319
314 314 314 314 314 314 314 314 314 314 314 314 313 313 314 314 313 313 313 313 313 313 313 313 312 313 313 313 314 314 314 314 314 314 314 315 314 314 315 316 316 317 317 318 318 318 319 319 320 320 321 321 321 321 321 322 322 323 324 325 326 326 328 329 330 330 330 330 329 329 328 328 327 327 327 326 325 323 322 321 321 321 321 320 319 315 311 309 310 311 311 310 311 313 315 317 318
316 315 315 316 315 315 315 315 315 314 315 314 313 313 313 312 312 312 312 312 312 312 312 312 312 312 313 313 313 313 313 313 313 313 313 313 314 314 314 315 316 316 317 317 318 318 318 318 319 320 320 321 321 321 321 323 323 323 325 326 327 327 327 327 327 329 330 329 329 329 329 328 328 327 327 326 325 323 322 320 320 320 320 319 318 315 311 309 309 310 311 311 311 313 316 317 319
316 316 316 317 317 317 316 315 315 314 314 313 312 312 312 311 311 311 311 311 311 312 312 312 312 312 312 312 312 312 312 312 312 312 312 313 313 313 314 314 315 315 315 316 317 318 318 318 318 319 319 320 321 321 321 322 323 323 325 327 327 327 327 326 326 327 328 329 329 329 329 328 328 327 326 326 325 324 322 321 320 319 319 319 318 315 311 309 309 310 310 311 310 312 315 317 318
317 318 318 318 318 317 316 315 314 313 313 311 311 311 311 310 311 311 311 311 311 311 311 311 311 311 311 312 311 312 311 311 311 311 311 312 313 313 313 313 314 314 314 315 316 316 317 317 318 319 319 319 320 322 322 321 322 323 325 327 327 327 327 326 325 326 327 327 328 328 329 328 328 327 326 326 326 324 322 321 320 319 319 318 317 315 312 309 309 309 310 310 310 310 313 316 317
318 318 319 319 318 316 314 314 313 313 312 311 311 311 310 310 310 311 311 311 311 311 311 311 311 311 311 311 311 311 311 311 311 311 311 312 312 312 313 313 313 314 313 314 314 315 316 317 318 318 318 318 319 321 322 321 322 323 325 326 326 326 326 325 325 325 325 326 326 327 327 328 328 327 326 326 326 325 323 322 321 320 319 318 317 315 312 309 309 309 309 309 310 310 311 314 316
319 319 319 317 316 315 313 313 314 313 311 310 311 310 310 310 310 311 311 312 312 312 313 312 312 312 312 312 312 312 311 312 312 311 311 311 312 312 312 313 313 313 313 313 313 314 315 316 317 318 317 317 319 320 321 321 322 323 324 324 325 325 325 324 324 325 325 325 325 326 326 327 327 327 326 326 326 325 324 323 322 321 320 318 316 314 311 309 309 309 309 310 310 312 312 313 316
320 320 318 317 315 314 313 313 313 313 312 311 311 311 311 311 311 312 312 313 314 314 315 315 314 313 313 313 312 312 312 312 313 312 311 311 312 312 312 312 313 313 313 313 313 313 314 316 316 317 317 317 318 320 321 321 321 322 323 323 323 323 323 324 324 324 324 324 325 325 326 326 327 327 326 326 326 325 325 323 322 321 320 318 316 314 311 309 309 308 308 310 310 312 314 313 315
319 318 317 316 315 313 313 313 313 313 313 313 312 312 311 312 312 312 313 314 315 316 316 316 316 315 315 314 314 313 313 313 313 314 312 312 312 312 312 312 312 313 313 313 313 314 314 315 315 315 317 318 318 320 320 321 321 321 322 322 322 322 323 324 324 325 324 324 324 325 325 326 326 326 325 325 325 325 325 323 322 321 320 318 316 314 312 309 309 309 309 310 310 312 314 314 315
318 317 316 315 314 314 313 314 315 313 313 313 312 312 312 312 313 314 315 315 316 316 317 317 317 317 316 316 316 315 315 315 315 315 314 314 314 313 313 312 312 312 313 313 313 314 315 315 315 315 315 316 318 320 320 320 320 320 320 320 321 321 322 324 325 325 325 324 324 325 325 325 325 325 325 325 325 325 325 323 322 321 320 318 316 314 312 309 308 309 309 311 310 311 313 314 315
317 316 315 315 315 314 314 316 315 312 312 313 312 313 313 314 315 315 315 316 316 317 318 319 318 318 317 317 318 317 316 316 317 317 316 315 315 315 315 314 314 313 312 313 313 314 315 315 314 314 314 316 318 319 319 319 319 318 318 319 320 321 322 323 324 325 324 324 324 324 324 324 324 324 324 324 324 324 324 323 322 321 320 318 317 314 312 309 308 309 310 311 312 310 311 313 314
317 316 316 316 315 316 316 317 316 313 313 314 313 314 315 315 315 316 317 317 319 319 319 320 320 319 319 319 319 319 319 319 319 318 318 317 315 315 315 315 315 314 313 313 313 314 314 314 313 313 314 317 318 318 318 318 317 317 317 318 319 321 321 322 323 323 323 324 324 324 324 324 324 323 323 323 323 323 323 322 322 321 320 319 317 315 312 310 308 309 310 311 312 311 311 312 314
318 317 317 317 316 318 319 319 318 315 314 315 315 316 316 316 317 317 318 320 321 321 319 318 319 319 319 319 320 319 318 320 320 319 318 318 316 315 315 315 315 314 314 312 312 313 313 313 313 312 314 316 317 317 316 316 315 316 316 317 318 319 321 321 322 322 322 323 323 324 324 324 323 323 322 322 322 322 322 322 321 321 320 319 317 315 313 310 309 309 310 310 311 312 312 311 312
318 318 318 317 317 319 320 319 317 315 315 316 316 318 319 319 320 319 319 321 321 320 320 320 320 320 320 319 320 320 318 319 319 319 319 319 318 317 314 314 315 314 313 313 312 312 312 312 313 313 313 314 315 315 315 315 314 315 316 317 318 319 320 321 321 322 322 322 323 323 324 323 323 322 321 321 321 321 321 321 321 321 320 319 317 316 314 311 309 309 309 310 311 311 311 312 311
318 319 318 318 318 320 320 319 318 318 320 319 317 321 324 321 319 319 319 319 317 317 319 320 320 320 320 319 320 322 320 320 320 318 320 320 320 318 315 313 314 314 313 313 312 312 311 311 311 312 312 312 314 313 314 314 314 315 316 317 318 318 319 320 320 320 321 322 322 322 323 322 322 321 320 320 319 320 320 320 320 321 320 319 318 316 315 312 310 309 309 309 310 310 309 312 313
318 319 319 320 320 320 319 318 319 320 321 319 318 322 324 320 318 319 319 320 317 316 318 319 318 317 317 317 319 319 319 319 319 318 318 320 320 319 316 313 313 314 313 312 312 312 311 311 310 310 310 311 312 312 312 313 313 314 315 316 317 317 317 318 319 319 320 320 321 321 321 321 321 320 320 319 319 318 319 320 320 320 320 319 318 317 315 313 310 310 309 309 310 310 309 311 313
319 318 319 319 318 319 319 318 319 320 319 318 319 321 322 321 319 318 319 320 318 316 317 317 316 315 315 315 316 317 317 317 317 316 318 318 318 318 316 313 313 313 313 313 313 312 312 311 310 309 309 310 311 311 311 311 312 313 314 315 316 317 316 317 318 318 318 319 320 320 320 320 320 319 319 318 318 318 319 319 319 319 319 319 318 317 316 314 311 310 310 309 309 310 310 310 313
319 317 317 317 316 316 317 318 319 319 319 320 322 321 322 324 320 317 319 319 316 317 317 315 313 313 314 314 315 315 315 317 315 315 317 317 317 317 314 314 315 315 315 315 314 313 312 312 311 310 309 309 310 310 311 311 311 312 314 314 315 316 316 316 316 317 318 318 319 319 319 319 319 319 318 318 318 317 318 319 319 319 318 318 318 317 316 315 312 311 311 310 309 310 310 311 312
318 316 316 316 316 317 317 319 319 320 321 321 321 321 323 325 320 317 320 317 315 317 315 313 312 312 313 314 314 314 314 317 317 315 317 317 316 314 313 314 317 316 315 314 314 312 311 311 311 310 309 309 310 311 310 310 311 312 314 314 314 315 314 315 315 316 317 317 317 318 318 318 318 318 318 317 317 318 318 318 318 318 318 318 317 317 316 315 314 312 311 310 310 310 310 311 312
317 316 316 317 319 319 318 319 318 320 322 321 320 320 320 323 323 319 317 315 315 316 313 312 312 312 314 314 313 313 313 315 316 315 316 317 315 313 313 315 315 315 314 314 314 313 311 310 310 310 310 310 310 311 311 310 311 312 312 313 313 313 313 314 315 315 316 316 316 317 317 317 318 317 317 317 317 317 317 317 317 318 318 317 317 317 316 315 314 312 311 311 310 310 309 310 311
315 315 316 317 320 320 319 320 318 320 323 321 319 318 318 322 324 318 315 314 314 314 312 311 311 312 313 313 312 312 312 313 313 315 316 316 315 314 315 316 315 315 315 314 314 314 313 311 310 310 310 311 311 311 311 311 311 311 311 312 312 312 312 314 315 315 315 316 316 316 316 316 316 316 317 317 317 317 317 317 317 317 317 317 317 316 316 315 315 313 312 311 311 310 309 309 310
314 315 316 317 319 320 322 323 321 322 322 318 316 317 318 319 318 314 315 314 313 312 312 311 310 312 313 313 313 312 313 314 314 315 316 315 315 314 315 317 316 315 317 316 314 314 315 313 312 312 311 311 311 310 311 311 311 310 311 311 311 311 312 314 316 315 315 315 315 316 316 316 316 316 316 316 316 317 317 316 316 316 317 316 316 316 316 315 315 313 312 311 311 310 310 310 309
314 316 317 318 319 321 324 325 324 325 321 316 315 316 320 319 315 315 314 311 311 312 313 312 311 312 313 313 313 313 314 315 315 316 316 316 315 314 315 316 314 313 315 316 314 313 313 313 313 313 313 311 311 311 310 311 310 310 311 311 312 312 313 315 315 315 315 315 315 315 315 315 315 315 315 315 315 316 316 316 315 315 316 316 316 316 315 315 314 313 312 312 311 310 310 310 309
313 314 315 317 319 321 325 325 325 326 323 319 315 317 322 321 317 317 313 310 311 311 312 313 312 313 313 314 314 314 314 315 316 316 316 317 315 315 315 313 311 312 313 314 314 314 312 312 313 314 314 312 311 311 311 311 311 311 311 311 312 312 313 314 314 314 314 314 314 315 315 315 315 315 315 315 315 315 315 315 315 315 315 315 316 315 314 314 314 313 312 312 312 310 310 310 310
315 315 315 317 318 319 323 324 321 321 323 321 318 319 321 318 316 315 312 312 310 310 311 311 312 313 313 314 314 314 315 315 316 316 315 317 317 317 317 313 310 312 312 313 314 313 313 313 312 313 314 313 312 311 311 311 311 311 311 311 312 312 313 313 313 313 313 313 313 314 315 315 314 315 314 314 314 314 315 315 315 314 314 315 315 314 313 313 313 313 312 312 312 311 310 310 311
317 317 318 317 317 317 321 322 318 317 320 321 319 320 319 315 316 316 313 312 310 310 311 310 312 313 312 313 314 315 316 315 315 315 314 316 318 318 317 312 309 310 311 312 313 312 312 313 312 311 313 313 312 312 311 311 312 312 311 311 311 312 312 313 313 312 313 313 313 313 314 314 314 314 314 314 314 314 314 314 314 314 314 314 314 314 313 313 313 313 312 312 312 311 311 310 311
317 319 317 315 317 318 318 319 319 320 320 320 320 321 319 316 317 316 313 312 310 310 310 310 312 314 313 314 313 313 315 315 314 314 315 315 316 317 316 312 309 309 308 310 311 310 309 311 311 311 311 311 311 311 312 312 312 312 311 311 311 311 312 312 312 312 312 313 313 313 314 314 314 314 314 314 314 314 314 314 314 314 314 313 314 314 313 313 313 313 312 311 312 311 311 310 310
313 315 314 314 319 320 319 318 319 321 320 319 320 319 318 317 317 315 313 312 310 310 311 311 312 313 315 316 316 315 315 316 315 314 315 316 314 315 315 312 309 309 308 308 308 308 307 308 309 310 310 310 310 310 310 311 312 312 312 311 311 311 311 311 312 312 312 313 313 313 313 314 313 313 314 314 314 313 313 313 313 313 313 313 313 313 313 312 312 312 312 311 311 311 311 310 310
312 312 313 313 315 317 319 318 318 321 320 319 319 317 317 319 316 314 314 312 311 311 312 313 313 314 315 316 317 318 317 317 316 316 315 315 314 314 313 310 309 309 309 308 307 306 306 307 308 308 309 310 310 309 309 309 310 310 311 311 311 311 311 311 311 311 312 312 312 313 313 313 313 313 313 313 313 313 313 313 313 313 313 313 313 312 312 312 312 312 311 311 311 311 310 310 310
312 313 314 313 312 313 316 316 316 318 319 318 317 317 318 318 314 312 313 312 312 312 313 314 314 314 314 314 316 318 318 317 317 316 316 315 316 315 311 309 309 309 308 308 308 306 307 307 308 308 308 308 308 308 308 308 308 308 309 310 310 310 310 310 310 310 311 311 311 311 311 312 312 312 312 312 312 312 312 312 312 312 312 312 312 312 312 312 312 311 311 311 311 310 310 310 310
314 313 313 313 314 314 316 317 315 315 317 318 317 317 319 317 313 312 312 312 314 315 315 315 315 314 313 314 316 317 317 317 317 316 316 316 317 316 313 310 309 310 309 310 309 308 308 307 307 307 307 308 308 308 307 307 307 308 308 308 308 309 309 310 310 310 310 310 310 310 310 310 311 311 311 311 311 311 311 311 311 311 312 312 312 312 311 311 311 311 311 311 311 310 310 310 310
Wind_Speed
8 9 8 8 7 6 6 4 3 3 4 8 8 8 8 9 11 11 13 12 7 2 2 2 2 4 0 1 1 2 2 3 3 3 2 4 6 7 4 3 7 10 13 13 12 19 24 24 23 23 23 22 22 21 21 20 20 19 19 18 16 16 16 15 14 14 13 13 12 11 11 11 10 9 9 9 8 7 7 6 6 5 4 4 4 2 3 4 2 1 1 1 1 2 1 3 4
7 8 9 8 8 6 3 2 3 3 5 9 8 8 9 8 11 13 13 13 10 3 1 3 3 3 2 3 1 1 4 7 7 4 2 13 12 8 6 6 7 9 12 12 12 18 24 25 23 22 23 22 22 21 21 20 20 19 18 18 17 17 16 16 15 14 14 13 13 12 12 11 11 10 9 9 8 8 7 6 6 5 5 5 4 4 4 4 2 2 2 1 2 2 2 3 4
7 7 9 9 6 5 2 2 4 4 7 9 7 8 8 10 12 13 14 13 11 6 0 2 4 3 4 3 2 3 5 7 9 6 1 12 9 6 6 6 6 6 10 11 11 18 24 25 24 22 21 21 21 21 21 21 20 19 18 18 18 17 17 16 16 15 14 13 13 13 12 11 11 10 9 9 8 8 7 7 7 6 6 6 5 5 5 5 3 2 2 2 2 2 2 3 4
8 6 10 9 3 3 2 3 5 6 8 8 7 7 9 12 13 12 12 10 7 6 2 3 3 3 5 6 4 3 5 6 8 8 1 7 6 6 6 5 4 5 8 10 11 16 22 25 25 23 21 21 21 21 21 21 20 19 19 18 18 18 17 16 16 16 15 14 14 13 13 12 11 10 10 9 9 8 8 8 8 8 7 7 7 7 6 5 4 3 3 3 2 2 2 3 4
9 9 10 8 3 2 2 3 4 7 8 8 7 7 9 12 12 11 8 5 5 5 3 2 3 3 6 6 4 2 4 6 7 7 1 7 7 7 7 6 3 4 5 11 12 15 20 23 26 25 22 22 21 21 21 21 20 20 19 19 19 18 17 17 16 16 15 15 14 14 13 12 12 11 11 10 10 9 9 9 9 8 8 8 8 8 7 6 5 4 4 3 3 2 3 3 4
10 10 10 8 4 3 3 4 6 9 9 9 8 8 11 12 13 13 10 6 5 1 3 1 3 5 4 4 5 4 3 3 3 3 3 6 6 8 9 6 3 3 3 10 13 14 17 20 24 26 24 23 21 21 21 21 20 20 20 19 19 18 18 17 17 16 16 15 15 14 14 13 12 12 11 10 10 9 9 9 9 9 9 9 8 8 8 7 6 4 4 4 4 4 3 3 4
9 7 5 6 3 3 4 7 8 8 9 11 11 11 13 14 13 13 13 9 6 2 3 2 3 7 6 4 5 5 9 7 4 2 3 4 4 7 8 5 2 3 3 8 13 14 16 18 21 25 25 23 22 21 21 20 20 20 20 20 19 19 18 18 17 16 16 16 15 15 14 14 13 12 11 11 10 10 10 10 9 9 9 9 9 8 8 8 7 5 5 5 5 4 3 3 4
8 4 1 3 4 3 5 8 8 8 8 11 13 13 14 15 13 11 12 9 8 5 0 3 6 8 7 8 8 5 16 15 5 6 4 3 3 5 6 3 1 4 5 6 13 14 15 17 19 24 25 24 23 22 21 21 20 20 20 20 19 19 18 18 17 17 16 16 16 15 14 14 13 13 12 11 11 10 10 10 10 9 9 9 9 9 9 9 8 7 6 7 6 5 4 3 4
7 4 1 3 4 5 6 8 9 10 11 12 13 14 14 15 15 12 12 10 8 7 6 8 9 9 6 8 10 5 11 14 7 5 4 2 3 4 5 2 2 6 7 5 13 16 15 17 18 22 25 25 24 23 23 22 21 21 21 20 19 19 18 18 18 17 16 16 16 15 15 14 14 13 13 12 12 11 11 10 10 10 9 9 8 8 8 9 9 8 7 7 6 5 4 4 4
5 4 2 3 4 6 8 8 8 9 11 13 13 15 14 13 13 12 13 12 8 8 10 8 7 10 8 8 8 5 4 10 7 5 5 3 2 1 3 1 2 6 9 7 12 17 16 17 18 20 24 25 25 24 23 23 22 21 22 21 19 19 19 19 18 17 16 16 16 16 15 15 14 14 14 13 12 12 11 11 11 10 10 9 9 8 8 8 9 10 9 7 6 6 5 4 4
2 3 3 3 5 7 7 8 8 8 11 12 12 13 12 11 10 11 12 11 10 10 11 8 8 11 9 10 7 7 7 7 7 9 9 6 3 1 1 2 4 5 8 8 10 15 17 17 18 20 24 25 26 25 24 24 23 22 22 22 20 19 19 19 18 17 16 16 16 16 16 15 15 14 14 14 13 13 12 12 11 11 10 10 9 9 8 8 9 10 10 8 7 7 6 5 5
3 3 3 4 6 7 8 9 9 10 12 12 11 10 8 8 7 8 11 10 11 11 11 8 7 8 8 10 5 7 17 10 6 11 9 6 4 2 3 5 7 6 7 9 10 13 15 18 19 20 24 25 25 25 25 25 24 23 22 22 21 20 19 19 18 17 17 17 17 17 16 16 16 15 15 15 15 15 13 12 12 12 11 11 10 9 9 9 9 10 10 9 8 7 6 6 6
3 3 4 6 6 7 9 9 10 10 10 10 10 10 8 8 7 7 9 10 12 11 10 9 8 8 10 9 4 7 10 1 8 9 7 5 3 2 3 4 6 7 8 9 10 12 13 16 20 21 24 25 25 25 25 25 25 24 23 22 21 20 20 19 18 18 18 18 18 17 17 16 16 16 15 16 17 16 15 14 13 13 12 12 11 10 10 10 10 11 10 9 8 8 6 7 6
3 3 4 6 6 8 9 8 9 9 8 9 10 10 9 7 8 7 7 11 13 11 9 9 8 9 10 8 6 8 3 10 8 5 5 4 2 3 2 1 2 5 9 10 10 12 13 15 19 22 25 26 26 26 25 24 25 25 24 23 22 21 21 20 20 19 19 19 19 18 18 17 17 16 16 16 17 18 17 16 15 13 13 12 11 11 11 11 11 11 11 10 9 8 7 7 8
3 2 4 5 6 7 8 8 9 10 8 9 11 10 9 8 10 9 7 10 11 9 9 10 8 7 7 7 7 4 4 9 7 4 2 3 4 4 2 1 1 2 6 9 11 13 13 13 17 22 25 27 27 27 27 26 26 25 25 24 23 22 22 22 21 20 20 20 19 19 18 18 18 18 18 18 18 18 18 17 17 15 13 13 12 11 11 12 12 12 11 10 9 9 8 8 9
2 2 3 5 7 8 7 7 9 9 7 9 10 10 11 9 10 10 7 8 9 9 10 8 8 8 7 8 9 1 7 6 3 1 4 4 5 5 2 2 2 3 4 8 12 14 15 14 15 20 25 28 28 27 28 27 27 27 26 25 24 22 22 23 22 22 21 21 21 20 19 18 18 19 19 19 19 19 18 18 19 18 16 14 13 12 12 13 13 13 12 11 10 10 9 9 9
2 2 4 6 7 8 7 7 8 8 8 10 11 10 11 11 9 8 8 10 12 12 12 9 8 11 10 11 16 11 8 8 2 2 3 3 4 3 4 4 5 6 7 8 12 15 17 16 16 18 22 26 28 27 26 27 28 28 27 26 25 24 23 23 23 22 22 22 22 21 20 20 20 20 20 20 20 20 19 19 19 19 19 16 14 13 13 14 14 14 13 12 11 10 11 11 11
3 3 5 7 7 8 7 9 9 9 10 11 12 11 12 12 11 7 8 12 13 14 14 12 12 13 14 16 22 25 20 15 10 10 8 6 6 6 7 7 9 10 10 10 12 16 18 20 19 18 20 24 27 26 24 24 25 26 28 28 27 26 25 24 24 23 23 23 22 22 22 22 21 21 20 20 20 21 21 21 20 20 20 19 17 16 16 15 15 15 14 13 12 11 12 12 10
4 3 6 7 7 8 9 12 12 11 12 12 13 13 13 13 12 9 10 15 14 16 14 14 16 14 14 15 21 26 28 25 20 18 13 8 7 7 7 8 9 10 13 13 14 17 19 21 22 21 19 21 25 26 24 23 23 24 27 29 29 29 27 26 26 26 25 24 24 24 23 23 23 21 20 20 20 21 22 21 21 21 21 21 19 18 18 18 17 16 14 13 13 12 12 12 8
4 5 6 8 9 11 11 13 14 13 13 14 15 14 13 13 11 9 12 17 16 17 14 13 18 16 13 12 15 20 20 20 21 19 14 11 11 11 11 11 13 13 14 16 15 17 19 21 24 25 22 21 24 25 25 23 23 23 25 28 30 30 30 29 28 28 27 27 26 26 25 25 24 22 21 20 21 21 22 21 20 21 21 21 19 18 20 20 18 16 14 14 13 12 12 11 6
4 6 7 9 10 11 11 13 14 14 14 14 14 13 14 13 11 11 14 17 14 14 14 15 18 17 15 14 14 15 13 13 16 16 12 12 14 16 17 17 18 18 17 17 18 18 19 22 25 27 26 24 24 25 26 24 23 23 24 27 29 29 30 31 31 30 29 29 28 26 26 25 24 23 22 21 22 22 22 22 21 20 20 20 19 19 20 20 19 16 15 14 13 13 12 9 5
5 8 11 13 12 12 12 13 14 13 13 14 14 13 12 12 12 11 15 16 12 10 13 16 17 17 17 15 13 13 12 12 12 12 11 11 13 16 19 20 20 20 19 18 20 20 21 23 24 27 28 27 27 27 27 26 25 25 25 27 29 29 29 30 32 32 31 29 28 27 26 25 25 24 23 22 23 24 24 23 23 22 21 20 20 20 21 20 19 16 15 14 13 13 11 7 6
7 9 11 12 11 13 13 13 14 13 14 14 13 12 11 13 14 13 16 19 15 13 15 17 16 17 18 16 15 14 14 14 14 13 12 12 13 16 17 19 20 21 22 20 20 21 22 24 24 26 28 29 29 29 28 27 27 27 26 26 29 30 29 29 31 32 32 30 29 29 28 27 27 26 25 24 25 26 26 24 23 23 23 23 22 21 21 20 17 14 12 12 12 10 10 9 8
9 10 10 12 12 14 14 14 13 12 14 14 12 12 13 15 15 12 16 20 18 17 17 18 17 17 18 18 17 17 17 17 17 18 20 19 19 22 22 21 20 21 23 23 22 22 23 24 25 26 27 29 29 30 29 29 28 28 28 27 29 30 30 30 31 30 31 31 31 31 30 28 28 27 27 27 27 27 27 25 23 21 22 22 21 20 20 19 17 13 10 10 10 9 10 12 11
9 11 11 11 12 12 13 12 13 14 14 13 14 15 15 16 14 15 20 20 18 18 17 18 18 17 18 19 19 18 18 19 18 20 23 24 25 26 27 26 23 21 22 23 24 25 25 25 26 28 28 28 29 30 31 30 29 29 29 30 30 30 30 31 31 30 30 31 32 32 32 30 29 29 29 28 28 27 28 27 24 21 21 20 19 19 18 19 19 16 12 12 12 11 12 14 13
7 11 11 11 13 12 13 14 16 16 12 11 16 17 15 14 12 17 22 19 19 18 18 19 18 19 19 18 19 18 19 20 19 19 22 26 27 27 28 28 26 24 24 24 25 26 27 28 29 30 30 29 29 30 32 31 31 31 31 32 31 31 32 31 30 30 31 31 32 33 33 32 30 29 30 30 29 28 27 27 25 23 22 20 20 20 18 18 20 17 15 15 14 13 14 14 12
8 12 13 14 14 14 14 16 18 17 14 15 17 18 17 13 10 14 16 15 18 17 18 20 18 19 19 19 18 17 19 20 21 22 22 23 23 24 26 28 27 28 28 27 28 28 29 30 32 32 32 31 31 32 32 33 32 32 33 33 33 33 33 32 31 31 31 32 33 33 34 33 31 30 30 30 30 29 28 27 27 26 24 22 22 22 20 19 19 18 16 16 15 14 13 13 12
9 12 13 14 14 15 16 18 19 15 12 15 17 18 17 11 11 16 17 16 17 16 17 18 18 17 18 19 18 16 16 17 20 20 18 18 19 22 23 25 27 28 30 31 32 32 31 32 33 33 33 33 33 32 33 33 34 34 33 33 34 34 34 33 32 32 32 32 32 33 34 34 33 30 29 30 31 30 29 28 28 28 26 24 24 23 22 20 19 17 16 15 14 13 12 13 12
10 10 12 15 14 16 17 17 18 13 11 11 10 13 13 10 14 19 18 18 17 18 18 17 17 16 15 17 15 14 14 14 15 14 15 19 21 23 24 25 27 27 29 32 33 35 34 34 34 34 34 35 35 34 34 35 35 35 34 34 34 34 34 34 34 33 33 32 32 33 33 34 34 32 30 30 31 30 30 29 29 29 28 26 25 24 23 22 20 18 16 16 15 13 13 13 13
10 10 10 12 11 11 13 12 10 8 7 3 0 7 9 8 13 16 14 15 15 16 17 16 15 14 13 14 13 13 14 14 14 14 18 21 23 24 25 27 28 27 28 29 32 35 35 35 35 36 36 36 36 36 37 36 35 35 35 34 34 34 34 35 36 34 33 32 33 32 33 34 35 34 31 30 30 30 30 30 30 30 29 27 26 25 25 23 22 20 19 18 18 16 15 14 14
9 10 8 7 7 8 8 7 6 4 2 3 3 7 10 8 11 13 12 12 12 12 13 14 13 13 12 12 13 13 13 14 15 18 23 24 25 26 27 28 30 29 28 27 29 33 34 34 35 36 36 36 37 38 38 37 36 36 35 34 34 34 34 35 36 35 34 33 32 32 33 34 35 35 33 30 30 30 30 31 31 30 29 27 27 26 26 25 23 22 21 20 19 18 16 15 14
7 7 6 5 6 7 5 5 8 6 1 3 6 7 11 12 12 11 10 11 12 13 12 12 12 13 13 12 13 13 13 13 14 18 24 26 26 27 28 29 31 31 30 29 29 29 31 33 34 35 35 34 36 38 38 38 37 36 35 35 35 35 35 35 36 35 34 33 32 33 33 34 34 35 34 32 31 31 30 31 31 30 29 28 27 27 27 26 25 23 22 20 19 19 18 16 15
5 6 6 5 5 7 5 5 6 3 0 5 8 8 11 13 12 11 11 12 14 15 15 15 16 15 14 12 11 11 11 12 13 15 21 25 26 28 30 31 33 33 32 32 31 30 30 31 32 34 34 34 36 38 38 37 37 36 35 35 34 34 35 35 35 34 34 34 33 34 33 34 35 35 35 33 32 32 31 30 30 29 29 28 28 27 28 28 26 24 22 21 18 18 18 17 16
4 4 4 5 7 7 6 7 5 1 3 7 9 10 14 17 17 16 15 14 15 15 16 16 15 14 14 12 11 12 11 12 13 13 18 23 25 28 31 32 35 35 34 34 33 32 32 31 32 33 35 36 37 37 37 38 36 35 34 34 34 33 34 34 34 33 33 34 34 35 35 35 35 35 35 34 32 32 31 30 29 29 29 29 29 28 28 27 26 25 23 22 19 17 18 18 17
5 4 4 6 7 7 9 9 6 4 8 10 9 11 16 20 20 19 18 14 13 15 15 15 14 14 14 12 12 13 12 13 13 13 18 23 24 26 28 30 32 34 34 34 33 32 32 33 33 33 34 35 36 36 35 35 33 31 31 31 31 31 32 32 32 32 32 33 34 35 35 35 36 35 35 34 33 32 32 30 28 29 29 30 30 29 28 27 25 25 24 23 22 18 16 18 18
9 8 6 7 7 9 10 10 10 10 11 10 10 12 17 21 20 20 20 15 12 14 14 13 12 12 12 11 11 11 12 14 12 12 18 22 23 24 26 27 29 30 31 32 31 30 30 32 33 32 32 32 33 32 31 31 29 29 29 28 29 31 31 31 31 31 31 33 34 35 34 34 35 36 35 35 34 33 32 31 29 28 30 31 31 30 30 29 28 27 26 24 23 21 16 16 17
11 8 6 8 8 9 9 11 11 5 5 8 9 13 18 21 20 20 20 16 12 12 12 11 10 10 10 11 11 10 11 11 9 10 14 18 20 23 24 26 27 26 27 28 28 29 30 31 30 30 31 31 32 31 31 31 30 29 29 30 32 32 31 30 30 30 31 33 34 34 34 33 34 35 36 35 35 33 32 30 29 28 31 32 32 32 31 30 29 28 26 23 23 24 20 16 16
8 6 6 7 7 9 10 12 9 2 0 8 10 15 20 20 19 19 18 16 14 11 9 9 9 9 9 9 10 9 9 8 7 8 10 12 15 18 20 21 21 20 22 25 26 27 29 30 30 30 30 31 33 34 33 33 33 33 32 32 31 29 30 31 31 32 32 32 32 32 32 33 34 35 36 35 35 33 31 30 30 30 31 32 32 31 30 30 30 28 26 24 23 25 23 20 19
6 4 5 7 7 8 10 9 6 2 1 8 12 15 18 21 19 17 16 13 8 4 3 5 6 6 5 5 5 4 5 6 6 7 8 8 11 16 18 17 16 17 18 20 23 24 26 28 30 31 30 32 33 34 34 34 34 33 31 29 28 26 28 31 31 31 31 30 29 30 31 33 33 34 35 35 34 32 31 30 31 31 31 32 31 30 30 30 30 30 29 28 24 23 22 22 23
5 5 5 7 7 6 6 6 8 7 6 9 12 12 14 18 14 11 12 8 2 3 0 3 3 4 5 5 5 4 4 6 7 6 6 6 8 11 15 17 17 17 16 17 19 23 25 28 31 31 30 31 32 32 33 32 30 29 27 25 26 25 25 28 27 26 29 29 28 29 31 32 33 34 35 35 34 32 32 32 31 31 32 33 32 31 32 32 33 33 31 30 27 24 21 21 25
6 8 8 8 8 8 8 7 8 9 7 5 9 11 9 7 6 9 10 3 4 3 2 3 4 4 4 4 5 4 5 6 6 6 7 6 7 6 9 16 18 17 17 17 17 19 22 25 27 28 27 28 29 30 30 29 27 26 24 21 22 22 20 23 25 24 27 29 29 30 31 32 33 33 34 35 36 34 34 33 32 32 32 33 32 32 33 34 34 35 33 32 31 28 24 21 24
6 7 8 9 9 9 8 8 8 7 5 1 9 8 7 4 9 10 9 4 2 2 3 4 5 5 4 5 6 6 6 6 5 5 6 6 6 7 7 11 15 14 15 17 17 17 18 21 23 25 25 25 27 29 29 29 28 28 28 24 23 22 19 23 28 29 30 31 31 31 31 32 32 33 34 35 36 35 33 33 32 32 32 33 33 33 33 34 35 36 36 34 32 31 27 22 23
6 3 5 7 7 6 6 6 5 3 5 4 4 2 6 9 12 9 8 7 2 4 3 3 1 1 1 4 3 2 1 2 2 4 6 6 6 7 6 6 11 12 13 14 16 17 17 19 22 24 25 25 27 29 30 31 31 31 32 30 28 26 22 24 29 29 30 31 30 29 29 30 31 32 33 33 34 35 33 33 32 32 32 33 34 33 33 35 36 36 37 36 33 31 29 25 24
4 0 1 3 4 5 5 5 3 3 6 8 4 6 4 8 11 9 9 9 2 2 3 5 6 6 6 7 6 5 5 5 3 5 5 6 5 5 6 2 9 11 12 12 14 16 17 17 20 23 25 25 26 28 31 32 32 31 32 30 27 27 25 23 24 25 26 27 27 27 28 28 30 31 32 32 33 34 34 33 32 31 31 32 34 34 34 35 36 36 36 36 34 32 31 28 27
2 2 1 0 2 4 4 4 4 4 5 6 4 5 2 6 8 11 10 4 4 5 6 8 8 8 7 7 7 7 6 4 2 3 3 3 3 4 5 3 8 9 9 10 11 13 14 14 16 19 21 22 22 25 29 31 31 30 30 28 24 24 23 20 21 22 23 25 26 26 27 28 29 30 31 31 32 33 33 32 32 32 32 32 34 34 33 34 36 37 37 37 36 34 32 29 28
2 2 0 1 3 4 4 4 4 4 4 7 5 6 2 5 7 9 4 4 6 6 6 7 8 8 7 6 6 6 6 5 4 3 2 1 1 1 3 6 9 8 8 9 9 10 12 13 13 15 17 19 19 22 26 29 28 27 27 27 24 22 21 19 20 22 23 25 26 26 27 28 29 29 30 30 31 32 33 32 32 33 33 32 33 34 32 33 36 38 38 38 37 35 33 30 27
2 1 2 3 5 5 4 4 2 2 4 7 7 9 5 3 6 6 1 4 6 4 5 7 7 7 6 6 6 6 6 6 6 5 5 2 3 3 3 6 8 8 9 10 10 10 10 11 12 14 14 15 17 19 23 25 26 25 25 26 24 23 22 21 22 24 25 25 26 27 27 27 28 29 29 30 30 31 32 32 32 32 33 31 31 33 33 33 35 37 37 36 35 34 34 33 28
3 0 1 3 4 2 2 2 2 1 4 4 3 7 7 4 6 5 5 9 6 4 6 5 5 6 5 5 6 6 5 5 5 5 6 5 4 2 1 4 7 10 11 11 11 10 10 10 12 13 12 12 15 18 20 22 23 23 23 24 24 24 23 23 23 24 25 26 26 26 26 26 26 28 29 30 31 31 32 33 32 31 32 31 31 32 33 32 32 35 34 34 35 34 34 34 31
3 3 1 1 2 2 1 3 3 3 4 2 2 4 4 6 8 10 13 10 2 7 6 5 3 3 4 4 4 5 5 5 6 5 5 5 5 5 4 2 3 4 8 10 10 9 9 9 10 11 11 11 13 16 18 20 22 22 21 22 23 24 23 24 24 24 25 26 26 26 27 27 27 28 30 31 32 33 32 33 33 32 32 32 31 31 32 31 31 33 34 35 36 35 34 34 34
5 5 4 4 2 2 3 3 3 4 3 2 4 4 3 5 6 10 9 1 5 7 7 6 3 1 4 4 3 4 5 5 5 5 5 5 3 4 4 2 2 3 5 6 7 7 7 8 9 9 10 10 11 14 16 17 19 20 20 21 22 24 24 24 24 24 25 26 26 27 28 28 28 29 31 32 32 33 33 32 32 32 31 31 31 30 31 31 32 33 34 35 35 36 34 33 34
7 6 4 4 3 3 3 2 3 3 2 2 5 3 3 3 3 6 1 6 6 6 7 6 3 1 3 5 4 4 5 5 5 6 6 5 3 1 3 4 4 2 3 4 4 5 5 6 7 7 8 8 9 12 14 16 17 18 19 19 20 23 23 23 23 23 24 26 25 26 27 28 28 29 30 30 30 31 32 31 31 31 30 30 30 30 31 31 31 32 33 33 34 34 34 33 32
5 5 4 4 4 3 2 1 1 0 2 2 4 3 5 4 7 13 4 5 7 6 5 4 3 3 1 5 6 5 4 5 5 6 7 6 4 2 1 2 4 2 1 3 4 4 5 5 6 6 6 7 9 11 13 14 15 15 17 19 19 20 21 21 22 21 21 23 24 25 26 27 26 27 27 28 28 30 32 31 30 30 30 30 29 30 31 31 31 31 32 32 32 33 34 34 32
2 4 4 3 1 2 1 2 1 3 1 3 4 3 5 3 8 12 4 6 7 6 5 5 5 4 2 3 6 6 5 4 5 5 6 6 6 6 4 2 2 2 2 3 4 5 6 7 7 8 8 8 9 11 12 13 14 14 16 18 18 19 20 20 21 21 20 21 23 23 24 24 24 24 25 26 27 28 30 31 30 30 30 30 30 30 31 32 31 32 32 32 32 33 33 34 33
2 3 3 1 3 3 1 1 2 1 4 3 4 5 5 2 4 4 6 8 7 8 7 7 6 6 5 4 5 6 6 4 4 5 5 5 5 6 6 5 3 3 3 3 4 5 7 8 9 10 10 10 10 11 12 12 13 14 15 16 18 18 19 19 19 20 19 19 21 22 21 22 22 22 23 25 26 27 29 30 30 30 30 30 30 30 31 31 32 32 32 31 32 33 33 33 33
3 2 2 1 1 1 2 2 1 3 4 4 4 7 6 4 3 4 5 8 9 9 7 7 7 6 6 6 6 6 7 4 4 5 5 6 6 5 5 6 6 5 4 3 4 4 6 8 10 11 11 10 10 11 12 13 13 13 14 15 16 17 18 18 18 18 19 19 21 21 21 21 21 21 22 23 25 27 28 30 30 30 30 30 30 30 30 31 31 31 31 30 30 32 32 32 32
2 3 3 1 1 2 3 3 3 4 3 3 3 4 4 5 5 5 4 3 9 9 7 7 5 3 4 4 6 6 6 4 5 6 5 6 6 6 6 6 7 7 6 4 4 4 5 6 9 11 11 11 11 10 11 12 13 14 14 14 15 17 18 18 18 18 19 19 20 21 21 20 20 21 21 22 24 26 27 29 29 29 29 30 29 29 30 31 30 31 31 30 29 31 32 31 31
4 1 2 3 2 1 1 2 3 3 2 3 3 3 4 4 2 1 5 4 8 10 8 6 2 1 2 1 3 4 4 2 4 6 6 6 6 7 7 8 9 8 7 6 5 5 5 6 8 8 10 11 11 11 11 11 12 13 14 15 15 16 17 18 19 20 20 20 20 21 21 20 20 20 21 21 23 24 26 27 28 29 29 29 29 29 30 31 30 30 31 30 30 31 32 32 31
8 6 7 7 5 3 1 4 4 2 2 3 3 4 5 3 2 3 4 3 6 8 6 3 2 3 3 2 1 1 1 3 4 5 6 7 7 7 8 9 9 9 9 7 5 5 5 7 7 7 8 9 9 10 10 10 11 12 13 14 15 15 16 17 19 20 21 22 22 21 21 21 20 21 21 22 22 23 24 25 27 28 28 28 29 29 30 31 31 30 30 30 30 31 32 32 31
Wind_Direction
318 328 320 305 284 264 250 226 243 239 234 252 248 255 248 244 260 260 260 260 262 254 212 268 106 124 277 269 138 355 268 243 227 213 283 161 124 105 128 94 137 149 152 175 180 180 181 177 177 179 179 176 174 172 171 173 173 175 176 175 176 178 178 179 179 181 181 183 184 187 190 190 192 192 191 194 191 194 200 192 187 193 195 190 181 204 206 185 193 243 229 204 283 293 295 335 337
312 305 287 274 257 248 248 189 245 249 238 254 244 246 255 256 259 260 262 261 261 253 144 237 228 168 223 292 34 13 256 250 245 250 206 146 120 91 105 88 127 149 153 176 181 178 181 179 178 179 180 176 174 174 173 175 175 176 177 176 179 181 181 182 182 184 183 186 186 190 194 191 193 194 196 195 192 198 201 194 192 199 200 199 195 211 208 190 209 230 217 216 276 290 294 326 331
307 293 277 264 233 225 263 188 226 245 243 255 250 244 251 251 251 255 259 262 277 295 22 206 249 193 185 235 181 220 241 255 263 279 228 132 110 88 107 88 126 154 157 174 185 179 182 182 180 180 179 177 175 176 176 177 177 177 178 178 181 184 183 185 184 186 186 187 189 192 194 193 196 195 198 195 193 200 198 196 195 204 206 203 202 208 205 194 211 221 223 236 256 279 307 318 322
309 297 280 272 230 201 249 227 225 245 246 254 260 254 250 252 254 254 258 270 305 321 277 228 247 166 186 228 194 205 231 238 253 264 316 91 86 112 98 50 119 164 163 171 186 181 184 186 183 182 179 178 178 178 178 179 179 179 180 180 183 185 185 187 187 188 189 190 193 195 195 195 197 196 199 195 197 201 199 201 198 205 209 207 208 206 203 202 210 212 224 235 243 263 297 312 322
305 288 267 264 266 204 221 238 228 234 239 251 261 261 263 270 275 269 270 289 306 318 327 280 270 188 189 229 229 216 219 206 238 265 100 92 77 76 43 29 138 188 172 171 182 182 187 191 186 185 182 179 180 180 181 181 180 180 182 182 184 187 186 189 189 190 191 192 195 197 198 198 198 199 199 197 201 202 201 205 202 206 211 212 214 212 209 206 206 217 227 234 245 253 284 307 313
290 278 249 236 277 296 237 238 235 237 239 250 260 265 271 278 286 290 294 301 283 293 47 337 295 283 250 234 232 225 257 199 199 289 69 100 74 41 19 36 152 212 193 174 178 183 192 198 191 187 185 181 181 183 183 184 183 182 185 184 186 188 188 190 192 192 192 194 197 198 200 201 200 200 199 200 202 203 204 207 206 207 211 214 219 219 215 209 209 223 227 234 245 243 265 301 309
287 286 237 214 258 287 244 243 243 249 245 245 257 262 263 267 275 285 288 291 273 213 69 341 306 300 288 266 257 215 238 243 156 151 101 102 73 39 29 50 152 216 218 183 176 183 199 205 196 191 188 183 181 184 185 186 185 185 187 187 188 190 190 192 193 194 193 195 199 200 201 203 202 201 201 203 204 205 206 208 207 209 215 219 224 224 217 210 209 218 224 228 237 238 243 291 305
275 279 259 232 240 230 235 248 246 252 256 254 264 269 270 279 280 277 278 283 278 267 254 231 236 266 259 249 276 215 217 231 182 132 121 105 57 33 42 61 190 221 235 195 178 186 207 209 202 195 189 184 182 184 185 187 188 187 190 191 190 191 193 194 195 196 195 196 200 202 203 204 205 204 204 205 206 207 208 209 209 211 218 224 228 225 220 215 211 217 227 228 235 237 234 281 294
240 226 269 271 250 244 247 250 249 250 256 260 264 270 275 281 283 283 277 271 274 277 257 217 216 251 261 247 258 239 209 219 212 142 131 135 81 33 32 27 217 227 237 210 189 193 208 209 205 199 192 187 184 185 186 188 190 189 192 193 192 193 196 196 197 199 196 198 202 204 205 206 207 206 208 208 208 208 209 211 210 214 218 225 230 225 224 221 218 224 230 233 239 239 237 271 286
222 210 229 252 248 254 253 251 256 254 255 257 258 263 266 268 275 283 280 272 269 269 265 252 242 255 265 257 244 260 166 162 187 160 166 188 126 29 25 16 209 228 234 216 201 202 207 206 205 201 195 190 186 187 188 190 190 190 194 194 195 195 198 198 199 201 198 199 202 206 207 208 210 210 211 212 211 209 210 212 211 215 217 222 229 227 227 225 227 230 231 232 237 240 238 263 282
243 220 223 251 251 252 257 259 261 260 259 260 259 259 260 266 270 274 276 276 272 262 262 267 272 271 266 258 252 287 267 191 186 170 176 188 173 231 111 175 187 207 232 220 208 210 210 205 204 201 197 193 189 190 190 192 192 191 195 195 197 198 199 200 200 201 200 202 205 207 209 208 211 213 214 215 215 211 211 213 213 216 218 220 223 227 228 226 231 233 232 230 235 239 235 254 272
263 252 236 238 246 252 262 267 269 274 275 272 273 273 279 288 282 277 277 273 271 266 265 259 262 277 266 258 260 275 268 255 175 161 170 179 188 224 175 195 187 182 218 222 210 211 214 206 202 200 198 195 192 193 192 193 194 193 196 197 199 199 200 200 200 202 202 204 207 208 210 210 212 215 217 219 222 218 212 210 214 218 219 221 221 224 226 227 232 234 234 232 237 238 232 249 260
242 260 268 254 254 259 262 266 272 279 281 282 284 291 301 301 291 281 280 276 272 267 267 266 263 267 258 260 260 246 254 162 118 143 147 156 177 154 159 205 198 188 204 211 205 205 215 209 202 200 198 197 194 195 195 195 196 197 198 199 201 200 201 201 201 202 202 205 208 210 210 211 211 215 217 222 228 228 220 211 213 218 219 221 221 222 225 227 232 235 237 237 240 237 233 251 258
261 262 268 268 268 268 270 270 273 274 273 280 286 293 298 302 300 290 286 281 272 269 278 282 273 262 258 258 253 254 204 120 124 122 111 101 65 82 110 256 233 206 208 204 200 199 208 211 204 201 198 197 195 196 198 198 199 200 201 203 204 202 201 203 204 202 203 206 209 210 212 212 211 215 217 221 230 234 231 220 214 216 219 220 219 222 225 229 233 236 239 241 242 237 235 249 256
259 296 275 269 272 268 268 269 274 274 274 280 284 300 307 315 315 299 285 282 276 278 286 285 274 259 261 254 250 267 112 129 137 104 56 17 8 358 11 325 284 241 224 203 196 195 198 208 206 202 200 198 197 198 200 200 202 204 205 208 208 205 202 205 206 204 204 207 209 210 213 214 212 215 219 220 227 234 236 230 222 216 217 219 219 222 225 230 235 238 240 242 243 237 236 244 253
239 291 279 266 263 262 261 267 275 273 276 283 292 321 318 311 315 302 292 291 287 282 274 275 282 281 279 268 275 289 130 147 141 88 326 322 326 323 312 257 240 223 229 204 193 192 191 198 205 203 202 201 200 202 203 203 204 206 208 211 212 210 206 207 208 207 207 208 210 211 213 215 214 216 220 221 226 232 234 234 231 223 219 216 216 221 227 232 235 238 240 242 244 238 237 242 248
253 243 255 261 258 260 263 263 267 274 284 292 301 320 313 304 302 301 311 300 288 285 278 268 268 278 285 283 293 289 203 189 182 283 287 249 246 257 238 216 200 202 217 208 194 193 191 191 198 204 205 204 202 203 206 208 208 208 209 212 214 214 212 212 212 212 211 210 211 211 212 215 217 217 220 221 223 229 230 232 235 233 229 220 215 220 225 231 235 237 239 242 245 242 240 242 249
222 234 245 251 252 255 265 269 274 289 295 299 301 303 302 301 295 296 305 293 288 287 281 274 259 251 257 263 276 280 267 263 277 278 262 224 213 211 220 208 194 203 215 214 199 197 197 192 193 199 206 206 204 204 206 209 212 211 210 212 214 216 216 215 216 215 215 215 214 214 214 215 216 217 220 223 224 228 231 232 234 237 236 230 226 226 224 226 232 236 240 242 245 245 242 245 257
207 240 250 251 259 264 272 276 280 288 290 290 290 291 291 290 290 292 285 280 283 283 279 281 273 254 249 251 256 260 263 269 273 271 265 247 233 221 230 229 219 215 211 214 207 201 203 199 195 195 201 205 204 204 205 207 212 213 212 212 214 215 217 217 217 218 218 217 217 217 217 218 219 218 219 224 228 230 232 234 236 239 238 235 233 232 228 226 230 235 240 242 244 245 245 251 260
206 227 249 255 263 270 273 279 287 293 297 292 286 289 285 279 281 282 279 277 273 271 275 277 275 271 269 267 263 257 249 250 250 251 254 250 245 238 236 241 239 230 223 223 215 207 207 206 201 196 197 202 203 203 204 205 210 215 214 213 214 215 216 218 218 219 219 219 218 219 220 220 221 220 216 220 226 229 231 234 236 238 236 233 232 231 229 228 231 235 238 242 245 245 247 252 249
216 227 249 258 270 282 283 288 296 298 298 289 284 288 283 276 273 271 273 272 263 262 267 267 271 275 273 267 265 264 254 246 240 237 239 240 239 234 231 235 238 235 233 226 214 211 211 210 206 199 197 199 201 201 203 203 205 212 214 212 213 214 215 216 217 218 219 219 219 220 220 219 218 217 214 215 221 224 225 229 231 232 231 229 229 227 226 228 230 234 239 243 245 245 246 244 218
241 243 246 255 273 286 282 281 280 281 281 277 279 283 283 282 274 266 264 263 258 257 260 263 269 274 277 275 271 273 272 265 257 247 241 239 240 238 229 225 230 233 231 218 207 212 214 211 208 203 200 200 201 202 203 203 203 206 210 210 209 211 214 214 216 216 217 219 219 217 217 215 213 213 213 214 218 218 218 223 227 227 227 227 226 223 224 226 229 232 237 241 243 242 239 229 205
249 253 252 255 261 271 279 284 281 283 286 284 284 278 276 277 273 268 262 262 263 260 259 261 264 271 279 282 280 282 281 275 272 266 262 258 256 257 244 223 220 224 228 221 210 212 211 208 208 205 202 202 204 204 204 206 206 206 208 209 208 208 211 212 213 215 214 215 216 213 212 212 211 210 210 212 215 215 215 219 223 225 225 226 226 223 221 223 227 231 233 237 241 235 219 214 214
260 273 281 277 266 265 275 283 283 284 283 283 280 276 272 268 270 271 261 259 262 261 260 260 259 262 267 270 269 269 269 267 266 264 264 263 258 257 254 242 229 221 223 224 219 215 211 209 209 206 203 204 207 207 205 208 210 209 208 209 211 209 209 211 212 212 212 211 212 211 210 211 210 208 207 210 214 214 213 214 218 224 223 223 224 223 222 217 217 223 224 224 232 226 209 211 215
263 268 272 278 276 271 273 276 278 278 277 278 273 268 265 262 267 267 262 261 263 261 261 261 259 257 255 256 257 257 257 257 257 256 255 256 255 252 250 247 240 228 222 222 220 217 213 213 210 208 208 208 209 209 206 209 212 212 209 209 211 210 208 211 212 211 211 209 209 210 209 209 210 208 207 208 211 212 212 210 211 218 220 217 216 219 221 211 206 212 211 211 221 219 212 215 217
265 278 279 284 290 292 290 284 280 277 273 274 272 269 264 261 265 262 258 260 261 259 258 258 256 256 255 254 253 252 252 252 252 251 249 248 247 246 243 241 238 232 227 224 221 217 214 214 212 211 213 215 214 210 210 212 213 214 212 211 211 210 210 211 211 210 211 209 209 210 209 209 208 209 208 207 209 210 209 208 207 210 215 213 210 213 215 207 203 206 204 206 214 216 216 220 222
278 284 286 284 289 292 285 279 274 273 271 267 265 265 263 255 253 262 260 255 256 253 251 254 252 252 253 253 253 251 250 249 249 248 246 245 241 240 239 235 232 230 229 227 225 221 215 214 214 214 216 219 216 213 214 215 215 217 216 214 212 212 211 209 209 209 210 210 210 210 209 208 208 209 210 208 208 209 208 208 206 206 209 209 207 208 208 206 205 205 204 205 211 216 216 218 223
292 286 287 283 285 280 273 271 268 265 263 257 256 261 260 248 240 254 262 259 257 255 252 252 251 250 249 249 249 247 248 247 247 246 241 240 238 237 236 232 229 227 226 225 225 224 219 215 214 215 216 218 216 215 219 219 218 219 218 216 214 214 211 208 209 210 210 210 210 211 210 208 207 208 211 211 210 209 207 207 205 204 206 205 206 206 205 205 203 203 205 204 207 214 213 214 220
297 291 289 282 278 272 266 263 257 252 251 247 260 274 260 236 240 248 255 256 253 251 253 254 252 251 249 249 247 243 245 244 243 243 240 238 237 236 236 234 231 226 224 224 224 222 221 220 216 214 216 217 217 218 221 221 220 219 218 217 216 214 212 210 210 211 211 210 210 211 211 209 208 207 209 212 211 210 208 207 205 205 206 205 206 206 203 202 199 197 201 200 197 201 207 212 218
286 276 272 279 282 269 262 262 251 235 245 234 56 286 260 227 243 252 255 258 256 248 244 246 248 249 248 248 248 245 243 244 242 240 239 237 235 236 236 236 234 230 226 224 222 219 220 221 218 215 215 216 217 220 220 219 220 219 217 216 215 213 212 212 213 212 211 211 210 211 212 211 210 208 208 211 212 211 210 208 207 206 206 205 204 204 202 200 197 195 198 200 196 196 202 208 215
273 269 258 262 271 268 268 286 286 240 211 109 138 259 269 257 254 258 258 263 272 267 251 244 241 239 241 241 242 243 240 239 240 240 239 234 231 233 234 234 234 233 230 225 222 219 218 220 219 216 216 216 217 219 218 217 219 218 215 213 213 214 214 214 214 213 212 211 211 211 213 213 211 209 207 209 211 210 209 209 208 208 205 203 203 204 201 199 198 197 199 202 199 198 201 205 215
256 259 262 249 252 283 297 293 289 281 242 167 188 252 277 271 262 259 262 267 272 273 268 262 257 249 243 239 238 240 239 236 236 237 237 233 228 228 229 231 232 232 231 228 226 220 217 218 217 216 216 217 218 218 217 217 218 216 213 212 212 214 215 215 216 215 213 212 212 212 214 214 212 210 208 208 210 209 209 209 209 208 205 202 202 203 201 199 199 198 202 204 201 200 202 205 214
242 233 257 265 276 305 313 310 309 322 56 206 217 261 280 277 274 269 266 266 264 264 263 259 258 258 253 250 246 245 244 241 240 236 234 233 227 225 226 226 228 230 229 227 226 221 216 214 213 214 216 218 219 218 216 216 216 214 212 211 212 214 215 217 218 216 214 213 213 214 214 214 212 210 208 207 208 208 209 210 209 207 204 201 201 202 202 201 200 198 199 204 203 200 200 203 210
253 246 270 294 306 312 303 308 323 121 210 240 241 257 271 277 282 283 274 267 266 265 263 258 253 253 252 251 249 248 247 243 243 239 234 233 228 225 225 224 225 227 228 226 225 221 214 210 210 214 217 218 218 216 215 214 214 212 211 210 212 214 216 218 218 216 214 213 214 215 215 215 212 209 207 206 208 209 208 209 209 207 204 200 199 202 203 201 200 200 198 199 200 199 199 199 204
288 290 303 304 302 298 289 297 310 284 268 267 267 271 277 282 286 288 283 275 270 267 265 262 256 251 248 246 243 243 245 244 242 239 236 236 233 228 227 227 226 225 227 226 224 220 213 208 210 213 215 215 215 215 213 212 210 208 207 208 211 214 216 217 217 215 213 213 215 216 215 214 212 209 207 206 207 208 208 207 207 206 203 200 198 200 201 197 197 200 199 197 195 196 200 200 202
280 287 294 297 293 287 284 284 290 294 289 284 287 285 285 288 289 289 289 283 271 266 264 260 257 255 251 249 244 239 242 245 244 243 240 237 234 232 230 231 229 226 227 226 224 219 210 206 209 212 213 213 213 212 209 205 202 202 204 206 209 212 213 212 213 213 212 213 215 215 214 213 212 209 208 207 206 207 206 205 205 205 204 201 198 198 199 197 196 198 197 195 193 192 195 199 202
264 280 286 284 280 280 285 286 289 310 314 292 289 288 284 285 288 288 289 289 277 265 263 260 254 252 249 248 248 243 243 246 248 251 248 242 236 233 230 231 229 226 225 223 219 213 207 205 207 211 214 213 210 206 201 198 196 197 201 204 207 208 207 207 209 209 210 212 214 213 213 213 212 209 208 207 205 205 204 202 202 203 203 201 199 200 201 199 197 197 195 194 194 191 190 193 193
265 274 281 281 275 279 283 285 294 40 14 287 293 291 287 286 287 287 286 286 277 258 250 260 259 253 247 241 242 240 242 249 249 251 253 249 242 237 233 231 227 222 221 217 211 206 205 206 208 211 212 209 206 202 198 197 198 201 202 204 206 204 203 204 206 207 209 212 213 213 213 212 211 209 207 206 205 204 202 200 202 203 202 201 201 201 202 200 197 196 192 190 194 195 193 190 186
273 271 277 273 270 284 281 280 307 19 269 294 304 297 292 290 286 283 281 273 270 250 232 284 302 307 297 281 268 257 262 269 260 252 248 242 238 234 232 231 225 220 216 210 205 203 204 208 212 213 210 205 202 201 199 199 203 205 205 205 203 201 203 206 208 208 209 210 212 212 212 211 209 208 206 205 205 203 202 202 203 203 201 201 199 198 199 198 196 196 194 190 188 192 197 195 191
250 250 263 266 273 288 282 295 328 329 297 292 306 302 290 287 283 287 284 261 154 90 170 292 323 336 317 317 323 314 294 286 285 282 273 265 249 228 218 219 221 221 217 210 205 205 206 210 213 210 204 201 199 200 201 202 204 204 205 207 204 203 206 207 208 209 209 209 209 210 211 209 207 207 206 205 204 203 204 204 203 203 202 201 199 196 196 197 196 196 195 193 188 184 191 198 200
240 233 237 255 269 267 270 301 322 314 289 287 332 321 285 286 315 315 304 302 97 113 222 265 254 239 255 285 293 276 261 262 272 285 292 293 282 260 222 210 209 213 217 218 215 211 210 211 209 205 201 201 200 200 201 200 198 196 196 197 198 199 200 199 200 204 204 205 206 207 208 208 207 206 206 206 206 205 205 204 202 202 202 201 200 199 198 198 197 196 195 195 194 190 189 191 198
254 230 227 246 263 272 287 316 326 319 286 353 25 342 281 318 331 308 300 318 77 146 247 254 239 220 216 247 248 230 238 248 248 270 288 290 284 292 266 203 189 198 211 220 222 220 217 212 208 205 204 203 202 200 200 197 194 191 187 183 184 187 187 190 196 199 199 201 204 206 206 207 206 206 207 208 208 206 204 203 202 202 201 201 202 202 201 198 197 197 197 196 197 199 194 183 189
269 232 223 252 277 297 308 315 319 309 278 306 30 289 271 309 308 296 300 299 215 177 263 285 302 19 350 293 265 201 297 353 348 313 300 294 283 288 284 186 168 189 209 219 223 222 218 211 209 208 206 204 202 201 200 197 194 192 190 189 189 189 189 194 199 200 199 200 202 204 204 206 207 207 208 209 209 207 205 203 202 202 202 202 203 202 202 200 199 199 200 199 199 199 195 187 185
258 356 205 254 288 294 296 304 290 265 286 292 241 202 252 296 291 288 290 289 227 168 324 9 17 18 15 356 4 18 26 57 22 318 306 310 308 293 291 195 167 188 203 209 214 216 214 209 208 207 205 203 202 201 199 196 194 192 193 195 195 195 196 197 198 198 199 200 200 202 204 205 207 208 208 208 208 207 205 203 202 202 203 203 204 204 204 203 201 200 200 201 200 198 197 195 190
225 47 67 197 296 285 287 288 268 276 303 294 234 163 214 268 277 291 286 303 9 355 8 23 11 11 11 360 7 4 8 48 22 325 324 330 338 330 333 61 121 148 167 184 199 207 208 207 205 203 201 201 201 200 198 198 197 195 195 195 196 198 199 199 196 196 198 198 199 202 204 204 205 207 208 207 207 206 205 203 203 203 204 205 205 205 206 204 202 200 200 201 200 199 198 198 195
160 56 7 251 260 251 256 253 264 297 284 269 242 161 195 273 276 285 298 44 354 334 17 29 11 6 3 0 10 2 355 358 348 352 5 8 117 22 5 77 101 122 142 159 176 187 193 196 196 197 198 200 201 200 198 199 199 198 197 196 197 196 196 196 194 193 195 196 197 199 201 203 203 204 206 206 205 205 205 204 204 205 205 206 206 206 205 205 204 202 202 201 200 199 198 199 201
110 31 316 292 256 225 221 228 247 298 263 262 233 180 172 297 280 267 42 14 321 337 37 28 18 6 1 22 30 20 8 355 346 352 357 20 123 151 162 134 134 145 148 148 153 159 168 177 182 187 191 196 198 197 198 199 199 200 200 199 199 196 194 192 187 187 190 190 192 195 197 200 201 202 202 204 204 205 205 205 205 206 206 206 207 207 206 206 205 203 202 200 199 199 199 200 202
90 138 314 325 287 235 181 182 165 220 253 272 216 169 169 223 263 279 315 315 322 71 71 45 32 360 356 36 49 42 26 15 13 4 359 10 27 30 70 124 142 150 148 143 141 142 149 160 170 176 182 191 197 196 198 198 199 201 202 201 201 199 196 192 185 184 186 186 189 191 193 196 199 201 201 202 204 204 205 205 205 206 207 207 208 208 207 208 206 203 201 199 199 200 201 201 201
129 163 153 29 317 295 204 192 192 212 237 251 139 145 196 240 255 269 284 299 16 109 111 99 74 347 346 26 53 53 38 32 33 26 22 20 6 351 355 39 102 117 124 127 128 131 138 149 162 171 178 186 192 193 197 198 198 200 200 201 202 200 197 194 188 186 186 187 189 189 190 194 196 199 201 203 204 204 204 205 205 205 207 207 209 209 207 208 206 202 200 200 200 200 201 202 202
173 168 160 163 184 243 233 221 221 223 236 224 188 182 244 262 248 251 264 275 122 130 133 135 134 336 336 346 18 48 45 40 35 34 36 34 15 340 328 335 15 58 88 106 119 131 136 145 157 165 172 181 186 190 194 196 198 200 200 199 198 197 196 195 192 191 191 192 192 193 194 196 197 199 202 205 205 204 204 206 205 205 207 207 208 209 207 207 206 202 200 200 201 201 201 203 204
189 184 177 197 207 213 220 213 227 251 299 224 199 202 221 209 251 276 290 114 135 132 135 162 176 158 325 328 343 17 34 36 32 34 35 35 43 357 318 317 320 6 80 99 118 133 139 146 157 160 167 179 185 189 192 195 198 200 200 199 197 197 197 197 196 196 197 197 197 198 199 200 201 203 204 205 205 204 204 205 206 206 206 207 208 208 205 205 205 202 201 201 201 202 202 203 204
193 172 177 231 233 207 237 297 198 159 347 260 202 233 234 217 288 291 291 115 124 121 136 186 198 172 269 321 331 352 15 26 30 33 26 18 20 32 22 324 315 319 116 136 140 148 152 154 162 164 170 184 189 191 192 194 197 199 199 200 198 199 200 201 200 201 203 204 202 203 203 203 205 206 206 205 205 205 205 205 206 207 207 206 207 207 205 205 205 203 202 202 202 202 202 203 204
189 164 180 233 212 138 230 302 33 108 249 250 194 245 272 276 287 274 229 123 127 146 170 199 213 204 202 297 314 330 342 10 40 43 27 14 10 12 13 358 321 285 238 187 174 172 170 172 176 172 172 181 188 193 194 193 195 198 199 200 199 199 201 203 203 203 206 207 206 207 207 206 206 208 208 207 206 206 206 205 205 206 207 207 208 208 207 207 207 205 203 202 202 201 202 203 203
145 184 206 316 23 53 121 278 356 182 250 252 188 236 259 225 276 251 149 135 158 177 186 196 218 221 206 239 277 300 306 330 38 40 23 14 9 6 358 348 334 293 257 219 208 196 182 184 185 182 182 185 188 192 193 194 196 198 200 201 202 202 203 204 203 203 204 205 204 206 207 206 206 208 208 207 206 205 205 205 205 205 206 207 208 208 207 207 206 204 204 204 203 201 201 203 204
126 236 254 96 79 255 161 176 231 211 244 263 218 240 239 183 226 243 173 157 169 183 192 200 219 213 196 219 242 264 287 312 22 28 17 8 360 353 343 337 332 314 288 254 231 218 199 193 192 190 191 191 190 190 190 193 198 200 204 205 205 205 205 205 203 202 204 204 203 203 204 204 204 205 206 204 204 204 204 204 205 205 206 206 207 207 206 205 205 204 203 203 203 201 201 202 203
79 326 304 122 162 203 179 193 218 199 225 258 240 257 252 206 207 227 241 183 164 176 192 205 221 183 156 204 230 238 263 303 21 26 13 360 347 332 323 323 325 321 311 293 260 245 229 212 206 198 190 187 191 192 192 196 200 202 205 208 209 210 210 209 207 205 207 208 207 206 205 205 204 205 206 204 204 205 204 205 205 205 205 205 205 206 205 205 205 205 204 204 203 202 201 202 202
188 223 238 213 193 167 205 254 229 192 206 241 249 259 249 236 180 186 286 261 175 169 180 192 211 115 142 253 254 227 242 309 24 27 8 353 341 327 324 324 324 323 318 307 281 263 246 230 226 214 199 193 193 195 196 198 201 204 207 209 212 213 213 213 213 212 212 213 214 213 212 211 210 210 210 209 207 207 207 206 206 205 205 205 205 205 206 205 206 206 206 205 204 202 202 202 201
188 195 199 198 191 165 214 259 226 193 204 211 234 249 238 252 349 16 324 276 158 145 146 170 249 257 241 259 221 131 62 21 26 27 7 347 333 325 326 326 326 321 314 308 288 271 256 241 235 228 219 211 205 203 202 200 201 204 210 213 214 214 214 215 215 215 216 217 218 219 218 216 215 215 215 214 213 211 211 210 208 207 206 206 206 206 206 205 206 206 205 205 205 203 201 201 200